Location: Ferchesar
(52.6477°N, 12.4298°E)
Time: 22:29:18
(UTC+01:00)

TIGRISAT - Pass Details

Date: 25 October 2021
Orbit: 603 x 689 km, 97.7° (Epoch: 30 November)

Event Time Altitude Azimuth Distance (km) Brightness Sun altitude
Rises 21:55:20 0° 4° (N) 2,987 ? -36.3°
Reaches altitude 10° 21:58:08 10° 346° (NNW) 2,053 ? -36.6°
Enters shadow 21:59:23 15° 332° (NNW) 1,742 ? -36.8°
Exits shadow 22:06:46 - 242° (WSW) 2,856 ? -37.7°
Sets 22:06:51 0° 241° (WSW) 2,885 ? -37.7°
